This demonstration page uses our WeatherBlox Daily Observations layout. Learn more.

Left ArrowRight Arrow

Hourly Observations for October 20, 2021

Temp ( °F °C ) Dew Point ( °F °C ) Humidity (%) Winds ( mph kmh ) Pressure ( in mb ) Visibility ( mi km ) Precip ( " mm )
12:20 am 00:20 Mostly Cloudy 57 14 54 12 88 88 NW 12 19 29.82 1010 10 16 0.00 0.00
12:56 am 00:56 Cloudy 57 13.9 53 11.7 87 87 NNW 18 30 29.83 1010 10 16 0.00 0.00
1:06 am 01:06 Cloudy 55 13 52 11 88 88 NW 17 28 29.85 1011 10 16 0.00 0.00
1:15 am 01:15 Cloudy 55 13 52 11 88 88 NNW 20 31 29.85 1011 10 16 0.00 0.00
1:56 am 01:56 Mostly Cloudy 52 11.1 49 9.4 89 89 NNW 14 22 29.85 1011 10 16 0.00 0.00
2:56 am 02:56 Cloudy 51 10.6 47 8.3 86 86 NNW 17 28 29.88 1012 10 16 0.00 0.00
3:56 am 03:56 Cloudy 48 8.9 46 7.8 93 93 NW 17 28 29.93 1014 10 16 0.00 0.00
4:21 am 04:21 Cloudy with Mist and Fog 46 8 45 7 93 93 NW 17 28 29.99 1016 4 6 0.00 0.00
4:56 am 04:56 Cloudy 46 7.8 44 6.7 93 93 NW 22 35 29.93 1013 10 16 0.00 0.00
5:26 am 05:26 Cloudy 46 8 43 6 87 87 NW 17 28 30.00 1016 10 16 0.00 0.00
5:56 am 05:56 Cloudy 46 7.8 42 5.6 86 86 NW 20 31 29.98 1015 10 16 0.00 0.00
6:35 am 06:35 Cloudy 45 7 43 6 93 93 NW 16 26 30.04 1017 10 16 0.00 0.00
6:56 am 06:56 Cloudy 45 7.2 41 5 86 86 WNW 15 24 30.01 1016 10 16 0.00 0.00
7:35 am 07:35 Cloudy 45 7 39 4 81 81 NW 16 26 30.06 1018 10 16 0.00 0.00
7:56 am 07:56 Cloudy 45 7.2 39 3.9 80 80 NW 17 28 30.01 1016 10 16 0.00 0.00
8:30 am 08:30 Cloudy 45 7 39 4 81 81 NW 20 31 30.06 1018 10 16 0.00 0.00
8:56 am 08:56 Cloudy 44 6.7 39 3.9 83 83 NW 16 26 30.03 1017 10 16 0.00 0.00
9:07 am 09:07 Cloudy 45 7 39 4 81 81 NW 18 30 30.08 1019 10 16 0.00 0.00
9:56 am 09:56 Cloudy 44 6.7 39 3.9 83 83 WNW 21 33 30.06 1018 10 16 0.00 0.00
10:56 am 10:56 Cloudy 46 7.8 37 2.8 71 71 NW 25 41 30.07 1018 10 16 0.00 0.00
11:09 am 11:09 Cloudy 48 9 37 3 66 66 NW 22 35 30.09 1019 10 16 0.00 0.00
11:56 am 11:56 Cloudy 49 9.4 37 2.8 64 64 NW 22 35 30.08 1019 10 16 0.00 0.00
12:14 pm 12:14 Cloudy 48 9 37 3 66 66 NW 23 37 30.10 1019 10 16 0.00 0.00
12:56 pm 12:56 Cloudy 50 10 36 2.2 59 59 NW 24 39 30.09 1019 10 16 0.00 0.00
1:11 pm 13:11 Cloudy 50 10 36 2 58 58 NW 22 35 30.11 1019 10 16 0.00 0.00
1:56 pm 13:56 Cloudy 51 10.6 36 2.2 56 56 NW 22 35 30.10 1019 10 16 0.00 0.00
2:56 pm 14:56 Cloudy 50 10 36 2.2 59 59 WNW 18 30 30.09 1019 10 16 0.00 0.00
3:56 pm 15:56 Mostly Cloudy 52 11.1 35 1.7 53 53 WNW 20 31 30.09 1019 10 16 0.00 0.00
4:56 pm 16:56 Cloudy 50 10 34 1.1 54 54 NW 17 28 30.10 1019 10 16 0.00 0.00
5:56 pm 17:56 Cloudy 49 9.4 34 1.1 56 56 NW 16 26 30.11 1020 10 16 0.00 0.00
6:56 pm 18:56 Cloudy 48 8.9 34 1.1 58 58 NNW 15 24 30.14 1021 10 16 0.00 0.00
7:56 pm 19:56 Cloudy 46 7.8 34 1.1 63 63 NW 9 15 30.15 1021 10 16 0.00 0.00
8:56 pm 20:56 Clear 43 6.1 33 0.6 68 68 NW 10 17 30.17 1022 10 16 0.00 0.00
9:56 pm 21:56 Clear 40 4.4 33 0.6 77 77 NW 6 9 30.19 1022 10 16 0.00 0.00
10:56 pm 22:56 Clear 38 3.3 33 0.6 83 83 WNW 9 15 30.19 1022 10 16 0.00 0.00
11:56 pm 23:56 Clear 38 3.3 32 0 79 79 WNW 12 19 30.20 1023 10 16 0.00 0.00

Powered by AerisWeather